| time (UTC) | temp F | wind direction | speed knots | gust knots | rain 1hr in | rain 24hr in | rain mn in | humidity % | barometer mb |
| 20260503190502 | 50 | 49 | 0.0 | 2.6 | 0.02 | 0.02 | 0.02 | 78 | 1015.3 |
| 20260503190005 | 50 | 49 | 0.0 | 2.6 | 0.02 | 0.02 | 0.02 | 77 | 1015.5 |
| 20260503185500 | 51 | 53 | 0.9 | 1.7 | 0.02 | 0.02 | 0.02 | 78 | 1015.7 |
| 20260503185002 | 51 | 243 | 0.0 | 0.9 | 0.02 | 0.02 | 0.02 | 75 | 1015.6 |
| 20260503184501 | 51 | 243 | 0.0 | 4.3 | 0.02 | 0.02 | 0.02 | 72 | 1015.7 |
| 20260503183501 | 51 | 243 | 1.7 | 8.7 | 0.01 | 0.01 | 0.01 | 72 | 1015.7 |
| 20260503183000 | 51 | 233 | 4.3 | 10.4 | 0.01 | 0.01 | 0.01 | 69 | 1015.8 |
| 20260503182503 | 52 | 259 | 6.1 | 13.9 | 0.00 | 0.00 | 0.00 | 68 | 1015.9 |
| 20260503182003 | 52 | 234 | 8.7 | 13.9 | 0.00 | 0.00 | 0.00 | 65 | 1016.0 |
| 20260503181501 | 0 | 248 | 8.7 | 18.2 | 0.00 | 0.00 | 0.00 | 100 | 1016.0 |
| 20260503181000 | 54 | 241 | 12.2 | 20.9 | 0.00 | 0.00 | 0.00 | 60 | 1015.9 |
| 20260503180501 | 56 | 256 | 9.6 | 19.1 | 0.00 | 0.00 | 0.00 | 52 | 1015.6 |
| 20260503175500 | 57 | 250 | 9.6 | 14.8 | 0.00 | 0.00 | 0.00 | 49 | 1015.7 |
| 20260503175002 | 0 | 236 | 7.0 | 16.5 | 0.00 | 0.00 | 0.00 | 1015.8 | |
| 20260503174501 | 0 | 238 | 8.7 | 17.4 | 0.00 | 0.00 | 0.00 | 1015.8 | |
| 20260503174001 | 0 | 252 | 10.4 | 17.4 | 0.00 | 0.00 | 0.00 | 49 | 1015.9 |
| 20260503173001 | 0 | 247 | 9.6 | 13.9 | 0.00 | 0.00 | 0.00 | 49 | 1016.0 |
| 20260503172001 | 58 | 231 | 10.4 | 17.4 | 0.00 | 0.00 | 0.00 | 48 | 1016.2 |
| 20260503171500 | 0 | 247 | 11.3 | 17.4 | 0.00 | 0.00 | 0.00 | 47 | 1016.2 |
| 20260503171003 | 0 | 236 | 9.6 | 16.5 | 0.00 | 0.00 | 0.00 | 100 | 1016.1 |
| 20260503170501 | 58 | 213 | 9.6 | 15.6 | 0.00 | 0.00 | 0.00 | 1016.2 | |
| 20260503151001 | 56 | 229 | 9.6 | 13.9 | 0.00 | 0.00 | 0.00 | 49 | 1017.5 |
| 20260503150503 | 56 | 240 | 8.7 | 13.9 | 0.00 | 0.00 | 0.00 | 50 | 1017.5 |
| 20260503131002 | 48 | 247 | 7.8 | 12.2 | 0.00 | 0.00 | 0.00 | 58 | 1017.8 |
| 20260503130501 | 48 | 248 | 7.0 | 13.0 | 0.00 | 0.00 | 0.00 | 57 | 1017.8 |
| 20260503110500 | 40 | 261 | 4.3 | 7.8 | 0.00 | 0.00 | 0.00 | 68 | 1017.6 |
| 20260503090500 | 40 | 182 | 1.7 | 4.3 | 0.00 | 0.00 | 0.00 | 68 | 1017.4 |
| 20260503081459 | 41 | 219 | 1.7 | 3.5 | 0.00 | 0.00 | 0.00 | 67 | 1017.5 |
| 20260503081000 | 0 | 249 | 1.7 | 3.5 | 0.00 | 0.00 | 0.00 | 67 | 1017.5 |
| 20260503072459 | 40 | 202 | 0.9 | 3.5 | 0.00 | 0.00 | 0.00 | 68 | 1017.6 |
| 20260503072001 | 40 | 226 | 1.7 | 3.5 | 0.00 | 0.00 | 0.00 | 67 | 1017.6 |
| 20260503071500 | 40 | 198 | 1.7 | 3.5 | 0.00 | 0.00 | 0.00 | 68 | 1017.6 |
| 20260503071000 | 40 | 220 | 0.9 | 3.5 | 0.00 | 0.00 | 0.00 | 68 | 1017.6 |
| 20260503070501 | 39 | 222 | 0.9 | 1.7 | 0.00 | 0.00 | 0.00 | 68 | 1017.6 |
| 20260503054001 | 39 | 199 | 0.0 | 0.9 | 0.00 | 0.00 | 0.00 | 71 | 1018.3 |
| 20260503052959 | 39 | 200 | 0.9 | 0.9 | 0.00 | 0.00 | 0.00 | 71 | 1018.3 |
| 20260503052500 | 39 | 199 | 0.0 | 1.7 | 0.00 | 0.00 | 0.00 | 71 | 1018.3 |
| 20260503051959 | 39 | 209 | 0.9 | 1.7 | 0.00 | 0.00 | 0.00 | 72 | 1018.4 |
| 20260503051000 | 39 | 196 | 0.9 | 1.7 | 0.00 | 0.00 | 0.00 | 71 | 1018.3 |
| 20260503050500 | 39 | 194 | 0.9 | 1.7 | 0.00 | 0.00 | 0.00 | 71 | 1018.4 |
| 20260503050005 | 39 | 194 | 0.9 | 1.7 | 0.00 | 0.00 | 0.00 | 71 | 1018.4 |
| 20260503045502 | 39 | 196 | 0.9 | 1.7 | 0.00 | 0.00 | 0.00 | 71 | 1018.4 |
| 20260503044002 | 40 | 200 | 0.9 | 1.7 | 0.00 | 0.00 | 0.00 | 71 | 1018.3 |
| 20260503043502 | 40 | 186 | 0.9 | 1.7 | 0.00 | 0.00 | 0.00 | 71 | 1018.4 |
| 20260503043004 | 40 | 186 | 0.0 | 0.9 | 0.00 | 0.00 | 0.00 | 71 | 1018.4 |
| 20260503042003 | 40 | 209 | 0.9 | 1.7 | 0.00 | 0.00 | 0.00 | 70 | 1018.4 |
| 20260503041503 | 40 | 188 | 1.7 | 1.7 | 0.00 | 0.00 | 0.00 | 69 | 1018.3 |
| 20260503041003 | 40 | 171 | 0.9 | 1.7 | 0.00 | 0.00 | 0.00 | 69 | 1018.3 |
| 20260503040502 | 40 | 167 | 1.7 | 1.7 | 0.00 | 0.00 | 0.00 | 68 | 1018.3 |
| 20260503035503 | 41 | 171 | 1.7 | 1.7 | 0.00 | 0.00 | 0.00 | 68 | 1018.3 |
| 20260503035003 | 41 | 180 | 0.9 | 1.7 | 0.00 | 0.00 | 0.00 | 68 | 1018.4 |
| 20260503034502 | 41 | 194 | 0.9 | 1.7 | 0.00 | 0.00 | 0.00 | 68 | 1018.3 |
| 20260503034002 | 41 | 197 | 0.9 | 2.6 | 0.00 | 0.00 | 0.00 | 68 | 1018.3 |
| 20260503033503 | 40 | 195 | 0.9 | 1.7 | 0.00 | 0.00 | 0.00 | 68 | 1018.3 |
| 20260503033003 | 40 | 159 | 1.7 | 1.7 | 0.00 | 0.00 | 0.00 | 68 | 1018.4 |
| 20260503032502 | 41 | 165 | 0.9 | 1.7 | 0.00 | 0.00 | 0.00 | 68 | 1018.3 |
| 20260503031502 | 40 | 191 | 0.9 | 1.7 | 0.00 | 0.00 | 0.00 | 70 | 1018.5 |
| 20260503031004 | 40 | 169 | 0.0 | 0.0 | 0.00 | 0.00 | 0.00 | 71 | 1018.4 |
| 20260503030503 | 39 | 89 | 0.0 | 0.0 | 0.00 | 0.00 | 0.00 | 73 | 1018.5 |
| 20260503030006 | 39 | 88 | 0.0 | 0.0 | 0.00 | 0.00 | 0.00 | 73 | 1018.5 |
| 20260503025502 | 40 | 88 | 0.0 | 0.0 | 0.00 | 0.00 | 0.00 | 71 | 1018.5 |
| 20260503025002 | 40 | 88 | 0.0 | 0.0 | 0.00 | 0.00 | 0.00 | 70 | 1018.5 |
| 20260503024503 | 41 | 88 | 0.0 | 0.0 | 0.00 | 0.00 | 0.00 | 68 | 1018.5 |
| 20260503024007 | 41 | 88 | 0.0 | 0.0 | 0.00 | 0.00 | 0.00 | 67 | 1018.4 |
| 20260503023502 | 42 | 88 | 0.0 | 0.0 | 0.00 | 0.00 | 0.00 | 66 | 1018.4 |
| 20260503023004 | 42 | 88 | 0.0 | 0.0 | 0.00 | 0.00 | 0.00 | 65 | 1018.4 |
| 20260503022504 | 42 | 88 | 0.0 | 0.0 | 0.00 | 0.00 | 0.00 | 64 | 1018.3 |
| 20260503022003 | 42 | 88 | 0.0 | 0.9 | 0.00 | 0.00 | 0.00 | 63 | 1018.4 |
| 20260503021502 | 42 | 88 | 0.0 | 0.9 | 0.00 | 0.00 | 0.00 | 63 | 1018.3 |
| 20260503021002 | 42 | 88 | 0.0 | 0.9 | 0.00 | 0.00 | 0.00 | 64 | 1018.3 |
| 20260503020502 | 43 | 88 | 0.0 | 0.0 | 0.00 | 0.00 | 0.00 | 63 | 1018.3 |
| 20260503020004 | 43 | 88 | 0.0 | 0.9 | 0.00 | 0.00 | 0.00 | 61 | 1018.3 |
| 20260503015001 | 44 | 88 | 0.0 | 0.9 | 0.00 | 0.00 | 0.00 | 58 | 1018.1 |
| 20260503014504 | 44 | 52 | 0.0 | 0.9 | 0.00 | 0.00 | 0.00 | 59 | 1018.1 |
| 20260503014003 | 44 | 288 | 0.0 | 0.0 | 0.00 | 0.00 | 0.00 | 55 | 1018.1 |
| 20260503013501 | 44 | 288 | 0.0 | 0.0 | 0.00 | 0.00 | 0.00 | 56 | 1018.1 |
| 20260503013002 | 44 | 288 | 0.0 | 0.0 | 0.00 | 0.00 | 0.00 | 56 | 1018.0 |
| 20260503012502 | 45 | 288 | 0.0 | 0.0 | 0.00 | 0.00 | 0.00 | 56 | 1018.0 |
| 20260503012001 | 45 | 288 | 0.0 | 0.0 | 0.00 | 0.00 | 0.00 | 53 | 1018.0 |
| 20260503011503 | 45 | 288 | 0.0 | 0.0 | 0.00 | 0.00 | 0.00 | 56 | 1018.1 |
| 20260503011002 | 45 | 288 | 0.0 | 0.0 | 0.00 | 0.00 | 0.00 | 59 | 1018.1 |
| 20260503010503 | 46 | 288 | 0.0 | 0.9 | 0.00 | 0.00 | 0.00 | 56 | 1018.0 |
| 20260503010004 | 46 | 288 | 0.0 | 0.9 | 0.00 | 0.00 | 0.00 | 52 | 1018.0 |
| 20260503005503 | 47 | 288 | 0.0 | 1.7 | 0.00 | 0.00 | 0.00 | 51 | 1018.0 |
| 20260503005001 | 47 | 288 | 0.9 | 1.7 | 0.00 | 0.00 | 0.00 | 50 | 1017.9 |
| 20260503004501 | 48 | 292 | 0.9 | 1.7 | 0.00 | 0.00 | 0.00 | 47 | 1017.9 |
| 20260503003501 | 49 | 317 | 0.9 | 2.6 | 0.00 | 0.00 | 0.00 | 44 | 1018.0 |
| 20260503003002 | 49 | 316 | 1.7 | 3.5 | 0.00 | 0.00 | 0.00 | 42 | 1017.9 |
| 20260503002504 | 50 | 299 | 1.7 | 5.2 | 0.00 | 0.00 | 0.00 | 41 | 1017.9 |
| 20260503002001 | 50 | 298 | 3.5 | 5.2 | 0.00 | 0.00 | 0.00 | 38 | 1017.8 |
| 20260503001501 | 50 | 293 | 3.5 | 5.2 | 0.00 | 0.00 | 0.00 | 39 | 1017.8 |
| 20260503000502 | 51 | 302 | 3.5 | 6.1 | 0.00 | 0.00 | 0.00 | 37 | 1017.7 |
| 20260503000004 | 51 | 307 | 4.3 | 7.0 | 0.00 | 0.00 | 0.00 | 36 | 1017.7 |
| 20260502235502 | 51 | 347 | 4.3 | 7.8 | 0.00 | 0.00 | 0.00 | 37 | 1017.7 |
| 20260502235001 | 51 | 33 | 2.6 | 7.8 | 0.00 | 0.00 | 0.00 | 38 | 1017.6 |
| 20260502234501 | 51 | 343 | 3.5 | 8.7 | 0.00 | 0.00 | 0.00 | 37 | 1017.6 |
| 20260502234001 | 51 | 318 | 5.2 | 8.7 | 0.00 | 0.00 | 0.00 | 36 | 1017.7 |
| 20260502233503 | 51 | 323 | 4.3 | 7.8 | 0.00 | 0.00 | 0.00 | 36 | 1017.6 |
| 20260502233003 | 52 | 327 | 3.5 | 7.8 | 0.00 | 0.00 | 0.00 | 38 | 1017.7 |
| 20260502232501 | 52 | 330 | 2.6 | 7.0 | 0.00 | 0.00 | 0.00 | 38 | 1017.6 |
| 20260502232002 | 52 | 343 | 3.5 | 7.8 | 0.00 | 0.00 | 0.00 | 36 | 1017.7 |
| 20260502231502 | 52 | 316 | 4.3 | 9.6 | 0.00 | 0.00 | 0.00 | 36 | 1017.7 |
| 20260502230503 | 52 | 306 | 4.3 | 7.8 | 0.00 | 0.00 | 0.00 | 37 | 1017.7 |
| 20260502230004 | 0 | 298 | 4.3 | 12.2 | 0.00 | 0.00 | 0.00 | 1017.7 | |
| 20260502225502 | 52 | 325 | 5.2 | 12.2 | 0.00 | 0.00 | 0.00 | 37 | 1017.7 |
| 20260502225001 | 52 | 278 | 2.6 | 7.0 | 0.00 | 0.00 | 0.00 | 37 | 1017.6 |
| 20260502224501 | 52 | 333 | 3.5 | 7.8 | 0.00 | 0.00 | 0.00 | 1017.7 | |
| 20260502224001 | 51 | 36 | 3.5 | 7.8 | 0.00 | 0.00 | 0.00 | 39 | 1017.7 |
| 20260502223502 | 0 | 295 | 4.3 | 8.7 | 0.00 | 0.00 | 0.00 | 1017.8 | |
| 20260502223002 | 0 | 295 | 5.2 | 8.7 | 0.00 | 0.00 | 0.00 | 100 | 1017.8 |
| 20260502222501 | 0 | 333 | 5.2 | 8.7 | 0.00 | 0.00 | 0.00 | 99 | 1017.8 |
| 20260502222001 | 0 | 3 | 5.2 | 12.2 | 0.00 | 0.00 | 0.00 | 1017.8 | |
| 20260502221503 | 0 | 38 | 6.1 | 13.9 | 0.00 | 0.00 | 0.00 | 1017.7 | |
| 20260502221002 | 0 | 310 | 7.0 | 13.9 | 0.00 | 0.00 | 0.00 | 1017.7 | |
| 20260502220501 | 0 | 304 | 4.3 | 9.6 | 0.00 | 0.00 | 0.00 | 1017.6 | |
| 20260502220004 | 0 | 323 | 4.3 | 7.8 | 0.00 | 0.00 | 0.00 | 1017.6 | |
| 20260502215501 | 0 | 298 | 4.3 | 11.3 | 0.00 | 0.00 | 0.00 | 1017.7 | |
| 20260502214501 | 0 | 310 | 5.2 | 11.3 | 0.00 | 0.00 | 0.00 | 100 | 1017.7 |
| 20260502214001 | 53 | 12 | 7.8 | 11.3 | 0.00 | 0.00 | 0.00 | 38 | 1017.6 |
| 20260502213502 | 53 | 48 | 2.6 | 11.3 | 0.00 | 0.00 | 0.00 | 97 | 1017.6 |
| 20260502212501 | 52 | 283 | 6.1 | 11.3 | 0.00 | 0.00 | 0.00 | 39 | 1017.6 |
| 20260502212001 | 52 | 302 | 6.1 | 11.3 | 0.00 | 0.00 | 0.00 | 41 | 1017.6 |
| 20260502211501 | 0 | 339 | 4.3 | 9.6 | 0.00 | 0.00 | 0.00 | 100 | 1017.7 |
| 20260502211001 | 52 | 329 | 5.2 | 9.6 | 0.00 | 0.00 | 0.00 | 100 | 1017.7 |
| 20260502205501 | 0 | 39 | 6.1 | 10.4 | 0.00 | 0.00 | 0.00 | 1017.7 | |
| 20260502205003 | 0 | 39 | 5.2 | 9.6 | 0.00 | 0.00 | 0.00 | 1017.7 | |
| 20260502204502 | 52 | 27 | 6.1 | 11.3 | 0.00 | 0.00 | 0.00 | 1017.8 | |
| 20260502204003 | 0 | 340 | 5.2 | 11.3 | 0.00 | 0.00 | 0.00 | 42 | 1017.9 |
| 20260502203501 | 0 | 25 | 4.3 | 8.7 | 0.00 | 0.00 | 0.00 | 100 | 1017.8 |
| 20260502203001 | 0 | 47 | 5.2 | 9.6 | 0.00 | 0.00 | 0.00 | 1017.9 | |
| 20260502202502 | 0 | 314 | 6.1 | 9.6 | 0.00 | 0.00 | 0.00 | 1018.0 | |
| 20260502202001 | 0 | 303 | 4.3 | 8.7 | 0.00 | 0.00 | 0.00 | 43 | 1018.0 |
| 20260502201503 | 52 | 31 | 3.5 | 8.7 | 0.00 | 0.00 | 0.00 | 41 | 1018.0 |
| 20260502201002 | 51 | 13 | 4.3 | 8.7 | 0.00 | 0.00 | 0.00 | 43 | 1018.1 |
| 20260502200004 | 50 | 23 | 3.5 | 10.4 | 0.00 | 0.00 | 0.00 | 41 | 1018.3 |
| 20260502195501 | 51 | 26 | 4.3 | 12.2 | 0.00 | 0.00 | 0.00 | 43 | 1018.2 |
| 20260502195003 | 52 | 349 | 4.3 | 12.2 | 0.00 | 0.00 | 0.00 | 41 | 1018.3 |
| 20260502194502 | 51 | 331 | 7.8 | 11.3 | 0.00 | 0.00 | 0.00 | 43 | 1018.3 |
| 20260502194001 | 51 | 299 | 5.2 | 11.3 | 0.00 | 0.00 | 0.00 | 41 | 1018.3 |
| 20260502193503 | 0 | 294 | 6.1 | 10.4 | 0.00 | 0.00 | 0.00 | 1018.4 | |
| 20260502193001 | 0 | 329 | 4.3 | 10.4 | 0.00 | 0.00 | 0.00 | 1018.5 | |
| 20260502192502 | 0 | 323 | 1.7 | 8.7 | 0.00 | 0.00 | 0.00 | 1018.5 | |
| 20260502192001 | 0 | 333 | 5.2 | 11.3 | 0.00 | 0.00 | 0.00 | 1018.6 | |
| 20260502191501 | 0 | 27 | 7.0 | 11.3 | 0.00 | 0.00 | 0.00 | 100 | 1018.6 |
| 20260502191002 | 0 | 308 | 5.2 | 9.6 | 0.00 | 0.00 | 0.00 | 1018.6 |